Location: Nordegg
(52.4712°N, 116.0743°W)
Time: 08:27:37
(UTC+00:00)

Envisat - Pass Details

Date: 02 December 2021
Orbit: 764 x 766 km, 98.2° (Epoch: 25 January)

Event Time Altitude Azimuth Distance (km) Brightness Sun altitude
Rises 01:23:51 0° 219° (SW) 3,225 7.2 -15.8°
Reaches altitude 10° 01:27:20 10° 244° (WSW) 2,305 6.8 -16.3°
Maximum altitude 01:29:55 14° 275° (W) 2,047 6.2 -16.7°
Drops below altitude 10° 01:32:32 10° 306° (NW) 2,314 6.0 -17.1°
Sets 01:36:04 0° 332° (NNW) 3,247 6.4 -17.6°
